Siloam Springs, AR

3:48 PM CST on December 09, 2016 (GMT -0600)
Smith

Weather History for KSLG - July, 2013

Change the Weather History Date:

Wednesday, July 31, 2013

  Actual Average Record
Temperature  
Mean Temperature 78 °F -  
Max Temperature 84 °F 87 °F 105 °F (2012)
Min Temperature 73 °F 66 °F 60 °F (2004)
Cooling Degree Days 14    
Growing Degree Days 28 (Base 50)    
Moisture  
Dew Point 70 °F    
Average Humidity 81    
Maximum Humidity 89    
Minimum Humidity 66    
Precipitation  
Precipitation 0.00 in - - ()
Sea Level Pressure  
Sea Level Pressure 30.08 in    
Wind  
Wind Speed 2 mph (ENE)    
Max Wind Speed 7 mph    
Max Gust Speed -    
Visibility 7 miles    
Events Thunderstorm    
Averages and records for this station are not official NWS values.
T = Trace of Precipitation, MM = Missing Value Source: NWS Daily Summary

Daily Weather History Graph

Daily Weather History Graph

Search for Another Location

Airport or City:

Trip Planner

Search our weather history database for the weather conditions in past years. The results will help you decide how hot, cold, wet, or windy it might be!

Date:

Astronomy

Jul. 31, 2013 Rise Set
Actual Time 6:24 AM CDT 8:23 PM CDT
Civil Twilight 5:55 AM CDT 8:52 PM CDT
Nautical Twilight 5:21 AM CDT 9:26 PM CDT
Astronomical Twilight 4:44 AM CDT 10:03 PM CDT
Moon 1:20 AM CDT (7/31) 3:40 PM CDT (7/31)
Length of Visible Light 14h 56m
Length of Day
13h 59m
Waning Crescent, 31% of the Moon is Illuminated
Jul 31
Waning Crescent
Aug 6
New
Aug 14
First Quarter
Aug 20
Full
Aug 28
Last Quarter

Hourly Weather History & Observations

Time (CDT) Temp. Heat Index Dew Point Humidity Pressure Visibility Wind Dir Wind Speed Gust Speed Precip Events Conditions
12:15 AM 75.2 °F - 71.6 °F 89% 30.07 in 8.0 mi Calm Calm - N/A Thunderstorm Overcast
12:55 AM 75.2 °F - 71.6 °F 89% 30.07 in 5.0 mi Calm Calm - N/A Thunderstorm Overcast
1:15 AM 75.2 °F - 71.6 °F 89% 30.07 in 6.0 mi North 3.5 mph - N/A   Overcast
1:55 AM 75.2 °F - 71.6 °F 89% 30.07 in 6.0 mi SE 4.6 mph - N/A Thunderstorm Overcast
2:15 AM 75.2 °F - 69.8 °F 83% 30.06 in 4.0 mi ESE 3.5 mph - N/A   Mostly Cloudy
3:15 AM 75.2 °F - 71.6 °F 89% 30.06 in 5.0 mi East 6.9 mph - N/A   Mostly Cloudy
3:35 AM 75.2 °F - 69.8 °F 83% 30.06 in 5.0 mi East 4.6 mph - N/A   Overcast
3:56 AM 75.2 °F - 69.8 °F 83% 30.04 in 4.0 mi Calm Calm - N/A   Scattered Clouds
4:15 AM 73.4 °F - 69.8 °F 88% 30.04 in 3.0 mi NW 3.5 mph - N/A   Clear
4:35 AM 73.4 °F - 69.8 °F 88% 30.05 in 1.8 mi Calm Calm - N/A   Clear
4:55 AM 73.4 °F - 69.8 °F 88% 30.06 in 2.5 mi Calm Calm - N/A   Scattered Clouds
5:15 AM 73.4 °F - 69.8 °F 88% 30.06 in 2.0 mi Calm Calm - N/A   Overcast
5:35 AM 73.4 °F - 69.8 °F 88% 30.06 in 1.0 mi ESE 4.6 mph - N/A   Overcast
5:55 AM 73.4 °F - 69.8 °F 88% 30.07 in 1.8 mi ESE 3.5 mph - N/A   Overcast
6:15 AM 73.4 °F - 69.8 °F 88% 30.07 in 5.0 mi Calm Calm - N/A   Mostly Cloudy
6:55 AM 73.4 °F - 68.0 °F 83% 30.10 in 4.0 mi NNE 3.5 mph - N/A   Overcast
7:15 AM 73.4 °F - 69.8 °F 88% 30.10 in 5.0 mi NNE 3.5 mph - N/A   Overcast
7:35 AM 73.4 °F - 69.8 °F 88% 30.10 in 6.0 mi Calm Calm - N/A   Overcast
7:55 AM 73.4 °F - 69.8 °F 88% 30.10 in 7.0 mi NE 3.5 mph - N/A   Overcast
8:15 AM 75.2 °F - 69.8 °F 83% 30.09 in 10.0 mi Calm Calm - N/A   Mostly Cloudy
8:35 AM 77.0 °F - 69.8 °F 78% 30.10 in 10.0 mi ESE 3.5 mph - N/A   Partly Cloudy
8:55 AM 78.8 °F - 71.6 °F 78% 30.10 in 10.0 mi SSE 3.5 mph - N/A   Mostly Cloudy
9:15 AM 78.8 °F - 71.6 °F 78% 30.10 in 10.0 mi SE 3.5 mph - N/A   Overcast
9:35 AM 80.6 °F 84.6 °F 71.6 °F 74% 30.11 in 10.0 mi Calm Calm - N/A   Overcast
9:55 AM 82.4 °F 87.2 °F 71.6 °F 70% 30.10 in 10.0 mi SW 3.5 mph - N/A   Overcast
10:15 AM 84.2 °F 89.6 °F 71.6 °F 66% 30.10 in 10.0 mi SSW 4.6 mph - N/A   Mostly Cloudy
10:35 AM 82.4 °F 87.2 °F 71.6 °F 70% 30.10 in 10.0 mi Calm Calm - N/A   Mostly Cloudy
10:55 AM - - - N/A% - 10.0 mi North - - N/A   Overcast
8:35 PM 78.8 °F - 68.0 °F 69% 30.06 in 10.0 mi North 4.6 mph - N/A   Unknown
8:55 PM 77.0 °F - 68.0 °F 74% 30.06 in 10.0 mi NNE 3.5 mph - N/A   Clear
9:15 PM 77.0 °F - 66.2 °F 69% 30.06 in 10.0 mi NNE 4.6 mph - N/A   Clear
9:35 PM 75.2 °F - 68.0 °F 78% 30.07 in 10.0 mi North 4.6 mph - N/A   Clear
9:55 PM 75.2 °F - 66.2 °F 73% 30.07 in 10.0 mi NNE 4.6 mph - N/A   Clear
10:15 PM 75.2 °F - 66.2 °F 73% 30.07 in 10.0 mi NNE 6.9 mph - N/A   Clear
10:36 PM 75.2 °F - 66.2 °F 73% 30.08 in 10.0 mi North 5.8 mph - N/A   Clear
10:55 PM 73.4 °F - 66.2 °F 78% 30.09 in 10.0 mi NNE 4.6 mph - N/A   Clear
11:35 PM 73.4 °F - 66.2 °F 78% 30.10 in 10.0 mi NE 4.6 mph - N/A   Clear